sat.trackr.live / text

‹ back to catalog

UNKNOWN

NORAD 82494

UNKNOWN UNKNOWN UNKNOWN

§ Identity

Operator
Country
Launch date
Launch site
Launch vehicle
Mass (kg)
RCS (m²)

External: N2YO · Heavens-Above

§ Orbital elements

Epoch: 2026-05-24T00:06:15.207552Z

Period
96.49 min
Inclination
74.0050°
Eccentricity
0.0009280
Mean motion
14.92399924 rev/d
Perigee alt
584.0 km
Apogee alt
596.9 km
Semi-major
6,968.6 km
B*
1.2178e-3
RAAN
56.8121°
Arg perigee
171.1881°
Mean anomaly
188.9466°
Rev number
10,912

§ Raw data

UNKNOWN1 82494U          26144.00434268  .00012466  00000+0  12178-2 0  99902 82494  74.0050  56.8121 0009280 171.1881 188.9466 14.92399924109121

JSON: /api/v1/satellites/82494 · /tle

For live sub-satellite position, see the globe view (requires WebGL).

§ Visibility from observer

Set your observer location to see the next 7 days of passes ≥ 10°. The values pass through the URL so the page stays shareable.

No JS? Fill the form by hand. The geolocation button needs JavaScript.